DECAYED

FENGYUN 1C DEB, 30752 (Decayed)

Orbit data source: Space-Track

FENGYUN 1C DEB, 30752 was space debris in SSO originally from a launch on Mon, 10 May 1999 UTC launched from the Taiyaun Space Center, China (TSC). Fengyun 1C debris stems from the Chinese weather satellite Fengyun-1C, which was intentionally destroyed by a Chinese anti-satellite missile in 2007. This event dramatically increased the amount of space debris, with thousands of trackable fragments posing hazards to satellites and human spaceflight. The Fengyun 1C debris cloud has become a focal point in discussions about space sustainability and the need for international regulations to prevent the creation of new debris.

Loading next visibility...
FENGYUN 1C DEB details
Identifier
30752, 1999-025ATN
Orbit
Decayed
Last TLE update1 month ago
Origin
Flag of CNCASC (CN / PRC)
ManufacturerUnknown
MissionDecayed spacecraft
Bus & MotorUnknown
MassUnknown
Launch date (UTC)
1999-05-10 (26 years ago)
Launch vehicleUnknown
Launch site
Taiyaun Space Center, China (TSC)
Object type
Payload
Rocket body
Debris
Shape & HBRUnknown
Radar Cross SectionSmall (<0.1 m²)

Expand to show TLE details & history

TLE from 1 month ago
0 FENGYUN 1C DEB
1 30752U 99025ATN 24320.13575689  .08434282  11748+0  38143-1 0  9998
2 30752  98.8302 174.6965 0009252  59.3818 300.8361 15.89786375924688
Epoch: 2024-11-15T03:15Z
Definitive object data (Epoch: 2024-11-15T03:15:29.395Z)
Latitude-0.00005°
Longitude71.11608°
Altitude302.855 km
Speed7.728 km/s
True Right ascension11h 38m 47s
True Declination0° 00' 00"
Sunlit
Object was in daylight at TLE epoch
Visualization TLE readout
Latitude10.86852°
Longitude-31.2056°
Altitude113,677,617,710.612 km
Speed0.002 km/s
Apparent Right ascension04h 49m 29s
Apparent Declination10° 52' 07"
Sunlit
Object is in daylight
Visualization observer readout
Local Sidereal Time13:32:09
Azimuth306.7° NW
Elevation-21.705°
Doppler factor1
Orbital elements
Apogee altitude306.002 km
Perigee altitude293.645 km
Semi-major axis6,677.96 km
Eccentricity0.0009252
Inclination98.8302°
RAAN174.6965°
Arg. of periapsis59.3818°
True anomaly300.74501°
Mean anomaly300.8361°
Eccentric anomaly300.79056°
Mean motion3.9772 °/min
BSTAR0.038143
Orbital period90.52 mins
Loading maneuver chart data...
Loading historical data...
Loading historical data...
Loading historical data...
Loading historical data...
Loading historical data...
Loading historical data...
Loading historical data...

FENGYUN 1C DEB Visibility forecast

Observer location: undefined°, undefined

Span
Click to sort rows by Start time (UTC) header in descending order
Start Az.
Max El. time (UTC)
Max El. Az.
Max El.
End time (UTC)
End Az.
12 mins2024-12-21 15:13:01.082Z350.586° N2024-12-21 15:21:01.082Z45.536° ENE43.193°2024-12-21 15:25:01.082Z334.311° NNW
13 mins2024-12-21 16:46:01.082Z350.358° N2024-12-21 16:48:01.082Z54.958° ENE44.907°2024-12-21 16:59:01.082Z347.244° N
5 mins2024-12-21 19:56:01.082Z357.833° N2024-12-21 19:58:01.082Z354.749° N27.078°2024-12-21 20:01:01.082Z8.392° NNE
12 mins2024-12-22 04:58:01.082Z165.221° S2024-12-22 05:06:01.082Z67.151° ENE44.102°2024-12-22 05:10:01.082Z175.85° S
4 mins2024-12-22 06:24:01.082Z195.126° SSW2024-12-22 06:25:01.082Z235.562° WSW44.969°2024-12-22 06:28:01.082Z12.948° NNE
4 mins2024-12-22 06:39:01.082Z11.873° NNE2024-12-22 06:41:01.082Z239.459° WSW44.795°2024-12-22 06:43:01.082Z197.009° SSW
10 mins2024-12-22 09:26:01.082Z256.163° W2024-12-22 09:30:01.082Z308.887° NW40.191°2024-12-22 09:36:01.082Z241.939° WSW
|